Location: Bacharowice
(49.9333°N, 19.5833°E)
Time: 14:46:27
(UTC+00:00)

SOZ - Pass Details

Date: 04 October 2021
Orbit: 306 x 16685 km, 52.1° (Epoch: 27 October)

Event Time Altitude Azimuth Distance (km) Brightness Sun altitude
Exits shadow 03:45:16 - 255° (WSW) 13,385 11.6 -10.6°
Reaches altitude 10° 03:46:27 10° 255° (WSW) 13,114 11.6 -10.4°
Maximum altitude 04:23:46 83° 349° (N) 2,070 8.2 -4.5°
Drops below altitude 10° 04:30:07 10° 78° (ENE) 2,770 10.6 -3.4°
Sets 04:31:35 0° 80° (E) 3,324 11.4 -3.2°
